Location: Moscow
(55.7500°N, 37.5830°E)
Time: 04:12:09
(UTC+03:00)

Kosmos-337 - Pass Details

Date: 10 July 2022
Orbit: 1467 x 1552 km, 74.0° (Epoch: 13 August)

Event Time Altitude Azimuth Distance (km) Brightness Sun altitude
Rises 02:48:13 0° 331° (NNW) 4,736 ? -7.0°
Reaches altitude 10° 02:52:19 10° 315° (NW) 3,743 ? -6.7°
Maximum altitude 02:57:56 18° 277° (W) 3,105 ? -6.3°
Drops below altitude 10° 03:03:31 10° 238° (WSW) 3,702 ? -5.9°
Enters shadow 03:05:31 - 229° (SW) 4,141 ? -5.7°
